AMX27LB MMCV-MMPR

Flight info

Callsign AMX27LB
Flight time 1h 4m
Altitude 38000
Route IPSIS2 IPSIS J25 SLP UT147 GOYAS DCT NOTUP NOTUP1A
Aircraft B38M/M-SDE1FGHILORVWXY/HB1

Departure

Time 2026-04-23 11:52
Airport General Pedro Jose Mendez International Airport (MMCV)

Arrival

Time 2026-04-23 12:56
Airport Puerto Vallarta International Airport (MMPR)
Time Latitude Longitude Altitude Speed Heading
2026-04-23 11:30 23.71141 -98.95657 790 ft 0 kts 65°
2026-04-23 11:45 23.71140 -98.95661 790 ft 3 kts 64°
2026-04-23 11:46 23.71124 -98.95682 788 ft 4 kts 22°
2026-04-23 11:46 23.71102 -98.95681 791 ft 3 kts 337°
2026-04-23 11:46 23.71099 -98.95680 790 ft 2 kts 336°
2026-04-23 11:49 23.71104 -98.95683 791 ft 2 kts 336°
2026-04-23 11:49 23.71130 -98.95695 790 ft 6 kts 336°
2026-04-23 11:49 23.71163 -98.95742 789 ft 10 kts 268°
2026-04-23 11:50 23.71186 -98.95819 790 ft 13 kts 329°
2026-04-23 11:50 23.71285 -98.95868 790 ft 18 kts 331°
2026-04-23 11:50 23.71297 -98.95942 790 ft 10 kts 246°
2026-04-23 11:50 23.71266 -98.96012 790 ft 11 kts 244°
2026-04-23 11:51 23.71239 -98.96064 790 ft 4 kts 202°
2026-04-23 11:51 23.71215 -98.96059 790 ft 3 kts 144°
2026-04-23 11:51 23.71193 -98.96048 790 ft 7 kts 156°
2026-04-23 11:51 23.70937 -98.95927 790 ft 77 kts 156°
2026-04-23 11:52 23.70239 -98.95597 793 ft 141 kts 156°
2026-04-23 11:52 23.69179 -98.95103 952 ft 179 kts 158°
2026-04-23 11:52 23.68062 -98.94504 1759 ft 181 kts 155°
2026-04-23 11:52 23.66955 -98.93905 2700 ft 175 kts 158°
2026-04-23 11:53 23.65819 -98.93349 3410 ft 185 kts 161°
2026-04-23 11:53 23.64562 -98.93152 4132 ft 178 kts 197°
2026-04-23 11:53 23.63505 -98.93781 4886 ft 182 kts 218°
2026-04-23 11:53 23.62646 -98.94855 5422 ft 194 kts 232°
2026-04-23 11:54 23.61821 -98.96104 5771 ft 214 kts 232°
2026-04-23 11:54 23.60887 -98.97483 6083 ft 237 kts 232°
2026-04-23 11:54 23.59870 -98.98978 6592 ft 248 kts 232°
2026-04-23 11:54 23.58830 -99.00514 7191 ft 259 kts 232°
2026-04-23 11:55 23.57722 -99.02143 7646 ft 274 kts 232°
2026-04-23 11:55 23.56581 -99.03828 8404 ft 276 kts 233°
2026-04-23 11:55 23.55434 -99.05529 9119 ft 280 kts 233°
2026-04-23 11:55 23.54270 -99.07257 9785 ft 285 kts 233°
2026-04-23 11:56 23.53097 -99.09004 10394 ft 290 kts 233°
2026-04-23 11:56 23.51857 -99.10835 10689 ft 310 kts 233°
2026-04-23 11:56 23.50531 -99.12786 10900 ft 330 kts 233°
2026-04-23 11:56 23.49147 -99.14822 11057 ft 349 kts 233°
2026-04-23 11:57 23.47664 -99.17006 11163 ft 368 kts 234°
2026-04-23 11:57 23.46110 -99.19297 11265 ft 384 kts 234°
2026-04-23 11:57 23.44505 -99.21673 11592 ft 392 kts 234°
2026-04-23 11:57 23.42889 -99.24077 12068 ft 396 kts 234°
2026-04-23 11:58 23.41251 -99.26520 12525 ft 399 kts 235°
2026-04-23 11:58 23.39607 -99.28970 12999 ft 403 kts 235°
2026-04-23 11:58 23.37941 -99.31451 13410 ft 407 kts 234°
2026-04-23 11:58 23.36225 -99.33913 13876 ft 411 kts 230°
2026-04-23 11:59 23.34221 -99.36159 14203 ft 416 kts 226°
2026-04-23 11:59 23.32188 -99.38406 14655 ft 417 kts 227°
2026-04-23 11:59 23.30133 -99.40672 15057 ft 420 kts 227°
2026-04-23 11:59 23.28104 -99.42906 15476 ft 422 kts 227°
2026-04-23 12:00 23.26034 -99.45184 15842 ft 425 kts 227°
2026-04-23 12:00 23.23950 -99.47477 16219 ft 426 kts 227°
2026-04-23 12:00 23.21866 -99.49771 16551 ft 429 kts 227°
2026-04-23 12:00 23.19767 -99.52078 17000 ft 429 kts 228°
2026-04-23 12:01 23.17659 -99.54393 17363 ft 431 kts 228°
2026-04-23 12:01 23.15552 -99.56707 17744 ft 432 kts 228°
2026-04-23 12:01 23.13432 -99.59034 18092 ft 433 kts 228°
2026-04-23 12:01 23.11326 -99.61345 18326 ft 437 kts 228°
2026-04-23 12:02 23.09181 -99.63698 18597 ft 439 kts 228°
2026-04-23 12:02 23.07024 -99.66063 18866 ft 442 kts 228°
2026-04-23 12:02 23.04854 -99.68439 19121 ft 444 kts 228°
2026-04-23 12:02 23.02672 -99.70829 19383 ft 446 kts 228°
2026-04-23 12:03 23.00485 -99.73222 19618 ft 448 kts 228°
2026-04-23 12:03 22.98280 -99.75634 19870 ft 450 kts 229°
2026-04-23 12:03 22.96255 -99.78210 20083 ft 447 kts 239°
2026-04-23 12:03 22.94528 -99.81023 20328 ft 448 kts 239°
2026-04-23 12:04 22.92799 -99.83835 20540 ft 449 kts 239°
2026-04-23 12:04 22.91069 -99.86667 20719 ft 452 kts 240°
2026-04-23 12:04 22.89352 -99.89483 20919 ft 453 kts 240°
2026-04-23 12:04 22.87612 -99.92338 21126 ft 455 kts 240°
2026-04-23 12:05 22.85864 -99.95205 21352 ft 455 kts 240°
2026-04-23 12:05 22.84107 -99.98085 21544 ft 457 kts 240°
2026-04-23 12:05 22.82349 -100.00964 21755 ft 459 kts 240°
2026-04-23 12:05 22.80583 -100.03855 21949 ft 460 kts 240°
2026-04-23 12:06 22.78836 -100.06714 22126 ft 461 kts 240°
2026-04-23 12:06 22.77058 -100.09622 22282 ft 463 kts 240°
2026-04-23 12:06 22.73487 -100.15457 22630 ft 466 kts 240°
2026-04-23 12:07 22.71692 -100.18388 22789 ft 467 kts 240°
2026-04-23 12:07 22.69891 -100.21327 22977 ft 467 kts 240°
2026-04-23 12:07 22.68086 -100.24270 23152 ft 468 kts 240°
2026-04-23 12:07 22.66285 -100.27205 23302 ft 469 kts 240°
2026-04-23 12:08 22.64499 -100.30116 23465 ft 469 kts 240°
2026-04-23 12:08 22.62692 -100.33058 23607 ft 470 kts 240°
2026-04-23 12:08 22.60874 -100.36016 23707 ft 472 kts 240°
2026-04-23 12:08 22.59056 -100.38973 23846 ft 472 kts 240°
2026-04-23 12:09 22.57229 -100.41942 23951 ft 473 kts 240°
2026-04-23 12:09 22.55399 -100.44915 24084 ft 473 kts 240°
2026-04-23 12:09 22.53571 -100.47882 24177 ft 475 kts 240°
2026-04-23 12:09 22.51738 -100.50858 24321 ft 475 kts 240°
2026-04-23 12:10 22.49896 -100.53845 24452 ft 476 kts 240°
2026-04-23 12:10 22.48082 -100.56786 24581 ft 477 kts 240°
2026-04-23 12:10 22.46241 -100.59768 24718 ft 477 kts 240°
2026-04-23 12:10 22.44398 -100.62754 24864 ft 478 kts 240°
2026-04-23 12:11 22.42549 -100.65747 24999 ft 479 kts 240°
2026-04-23 12:11 22.40699 -100.68740 25116 ft 480 kts 240°
2026-04-23 12:11 22.38836 -100.71753 25252 ft 481 kts 240°
2026-04-23 12:11 22.36970 -100.74768 25393 ft 482 kts 240°
2026-04-23 12:12 22.35104 -100.77781 25577 ft 482 kts 240°
2026-04-23 12:12 22.33242 -100.80787 25799 ft 481 kts 240°
2026-04-23 12:12 22.31402 -100.83755 26013 ft 481 kts 240°
2026-04-23 12:12 22.29518 -100.86794 26228 ft 480 kts 240°
2026-04-23 12:13 22.27685 -100.89747 26432 ft 479 kts 240°
2026-04-23 12:13 22.25869 -100.92754 26631 ft 476 kts 245°
2026-04-23 12:13 22.24532 -100.95989 26876 ft 470 kts 251°
2026-04-23 12:13 22.23252 -100.99248 27085 ft 471 kts 251°
2026-04-23 12:14 22.21981 -101.02502 27320 ft 470 kts 251°
2026-04-23 12:14 22.20718 -101.05755 27545 ft 469 kts 251°
2026-04-23 12:14 22.19457 -101.09003 27769 ft 469 kts 251°
2026-04-23 12:14 22.18209 -101.12219 28017 ft 468 kts 251°
2026-04-23 12:15 22.16954 -101.15454 28239 ft 467 kts 251°
2026-04-23 12:15 22.15696 -101.18688 28513 ft 466 kts 251°
2026-04-23 12:15 22.14443 -101.21912 28741 ft 466 kts 251°
2026-04-23 12:15 22.13190 -101.25130 29016 ft 464 kts 251°
2026-04-23 12:16 22.11938 -101.28345 29321 ft 464 kts 251°
2026-04-23 12:16 22.10689 -101.31549 29617 ft 463 kts 251°
2026-04-23 12:16 22.09453 -101.34718 29894 ft 463 kts 251°
2026-04-23 12:16 22.08204 -101.37918 30175 ft 462 kts 251°
2026-04-23 12:17 22.06957 -101.41109 30427 ft 461 kts 251°
2026-04-23 12:17 22.05714 -101.44291 30677 ft 460 kts 251°
2026-04-23 12:17 22.04468 -101.47475 30933 ft 460 kts 251°
2026-04-23 12:17 22.03223 -101.50656 31165 ft 460 kts 251°
2026-04-23 12:18 22.01979 -101.53830 31427 ft 459 kts 251°
2026-04-23 12:18 22.01157 -101.55928 31599 ft 459 kts 251°
2026-04-23 12:18 21.99510 -101.60128 31959 ft 458 kts 251°
2026-04-23 12:18 21.98269 -101.63286 32236 ft 457 kts 251°
2026-04-23 12:19 21.97030 -101.66433 32509 ft 456 kts 251°
2026-04-23 12:19 21.96211 -101.68515 32674 ft 455 kts 251°
2026-04-23 12:19 21.94973 -101.71657 32932 ft 454 kts 251°
2026-04-23 12:19 21.93734 -101.74800 33190 ft 454 kts 251°
2026-04-23 12:20 21.92101 -101.78939 33531 ft 453 kts 252°
2026-04-23 12:20 21.91268 -101.81050 33709 ft 452 kts 252°
2026-04-23 12:20 21.89647 -101.85167 34040 ft 451 kts 252°
2026-04-23 12:20 21.88817 -101.87271 34164 ft 451 kts 252°
2026-04-23 12:21 21.86389 -101.93427 34175 ft 448 kts 252°
2026-04-23 12:21 21.83944 -101.99617 34173 ft 448 kts 252°
2026-04-23 12:22 21.81496 -102.05807 34174 ft 448 kts 252°
2026-04-23 12:22 21.79048 -102.11988 34173 ft 448 kts 252°
2026-04-23 12:23 21.76615 -102.18125 34172 ft 448 kts 251°
2026-04-23 12:23 21.75390 -102.21211 34350 ft 448 kts 251°
2026-04-23 12:23 21.74164 -102.24300 34363 ft 448 kts 251°
2026-04-23 12:24 21.71701 -102.30474 34280 ft 449 kts 250°
2026-04-23 12:24 21.69028 -102.36554 34254 ft 450 kts 250°
2026-04-23 12:25 21.66382 -102.42613 34220 ft 450 kts 249°
2026-04-23 12:25 21.63711 -102.48733 34182 ft 454 kts 249°
2026-04-23 12:26 21.61028 -102.54874 34131 ft 454 kts 249°
2026-04-23 12:26 21.58340 -102.61016 34089 ft 454 kts 249°
2026-04-23 12:27 21.55669 -102.67113 34043 ft 454 kts 249°
2026-04-23 12:27 21.52971 -102.73267 34048 ft 454 kts 249°
2026-04-23 12:28 21.50277 -102.79401 34044 ft 454 kts 249°
2026-04-23 12:28 21.47600 -102.85492 34049 ft 454 kts 249°
2026-04-23 12:29 21.44901 -102.91624 34043 ft 454 kts 249°
2026-04-23 12:29 21.42197 -102.97759 34055 ft 454 kts 249°
2026-04-23 12:30 21.39495 -103.03885 34049 ft 454 kts 249°
2026-04-23 12:30 21.36809 -103.09966 34057 ft 454 kts 249°
2026-04-23 12:31 21.34099 -103.16091 34050 ft 453 kts 249°
2026-04-23 12:31 21.31394 -103.22200 34053 ft 453 kts 249°
2026-04-23 12:32 21.28688 -103.28307 34059 ft 453 kts 249°
2026-04-23 12:32 21.25995 -103.34374 34053 ft 453 kts 248°
2026-04-23 12:33 21.23278 -103.40490 34055 ft 453 kts 248°
2026-04-23 12:33 21.20563 -103.46593 34057 ft 453 kts 248°
2026-04-23 12:34 21.17861 -103.52659 34054 ft 453 kts 248°
2026-04-23 12:34 21.15139 -103.58763 34058 ft 454 kts 248°
2026-04-23 12:35 21.12414 -103.64867 34056 ft 454 kts 248°
2026-04-23 12:35 21.09700 -103.70940 34060 ft 454 kts 248°
2026-04-23 12:36 21.06970 -103.77039 34049 ft 454 kts 248°
2026-04-23 12:36 21.04234 -103.83147 34051 ft 454 kts 248°
2026-04-23 12:37 21.01510 -103.89215 34019 ft 454 kts 248°
2026-04-23 12:37 21.00154 -103.92238 33641 ft 446 kts 248°
2026-04-23 12:37 20.98808 -103.95238 32913 ft 447 kts 248°
2026-04-23 12:38 20.97455 -103.98248 32126 ft 450 kts 247°
2026-04-23 12:38 20.96095 -104.01273 31383 ft 452 kts 247°
2026-04-23 12:38 20.94747 -104.04268 30686 ft 453 kts 247°
2026-04-23 12:38 20.93374 -104.07317 29910 ft 455 kts 247°
2026-04-23 12:39 20.91996 -104.10376 29009 ft 458 kts 247°
2026-04-23 12:39 20.90611 -104.13451 28191 ft 460 kts 247°
2026-04-23 12:39 20.89217 -104.16543 27370 ft 461 kts 247°
2026-04-23 12:39 20.87821 -104.19635 26559 ft 461 kts 247°
2026-04-23 12:40 20.86420 -104.22739 25921 ft 466 kts 247°
2026-04-23 12:40 20.85190 -104.25953 24946 ft 468 kts 251°
2026-04-23 12:40 20.84038 -104.29189 24002 ft 474 kts 251°
2026-04-23 12:40 20.82847 -104.32468 23427 ft 469 kts 251°
2026-04-23 12:41 20.81659 -104.35702 22872 ft 462 kts 250°
2026-04-23 12:41 20.80487 -104.38880 22319 ft 456 kts 250°
2026-04-23 12:41 20.79325 -104.42027 21714 ft 452 kts 250°
2026-04-23 12:41 20.78175 -104.45139 21135 ft 448 kts 250°
2026-04-23 12:42 20.77035 -104.48223 20562 ft 444 kts 250°
2026-04-23 12:42 20.75907 -104.51269 20020 ft 439 kts 250°
2026-04-23 12:42 20.74806 -104.54244 19534 ft 434 kts 250°
2026-04-23 12:42 20.73699 -104.57230 18993 ft 431 kts 250°
2026-04-23 12:43 20.72599 -104.60198 18492 ft 427 kts 250°
2026-04-23 12:43 20.71514 -104.63122 18206 ft 420 kts 250°
2026-04-23 12:43 20.70428 -104.66047 18062 ft 424 kts 250°
2026-04-23 12:43 20.69343 -104.68968 18086 ft 415 kts 250°
2026-04-23 12:44 20.68295 -104.71788 17990 ft 402 kts 250°
2026-04-23 12:44 20.67271 -104.74542 17609 ft 396 kts 250°
2026-04-23 12:44 20.66262 -104.77252 17289 ft 389 kts 250°
2026-04-23 12:44 20.65282 -104.79885 16998 ft 383 kts 250°
2026-04-23 12:45 20.64305 -104.82508 16714 ft 376 kts 250°
2026-04-23 12:45 20.63347 -104.85080 16505 ft 368 kts 250°
2026-04-23 12:45 20.62410 -104.87593 16324 ft 359 kts 250°
2026-04-23 12:45 20.61500 -104.90032 16197 ft 350 kts 250°
2026-04-23 12:46 20.60612 -104.92411 16067 ft 340 kts 250°
2026-04-23 12:46 20.59761 -104.94730 15904 ft 330 kts 254°
2026-04-23 12:46 20.59329 -104.97085 15783 ft 318 kts 263°
2026-04-23 12:46 20.59020 -104.99392 15695 ft 307 kts 263°
2026-04-23 12:47 20.58721 -105.01575 15512 ft 297 kts 263°
2026-04-23 12:47 20.58423 -105.03741 15053 ft 294 kts 263°
2026-04-23 12:47 20.58126 -105.05892 14574 ft 292 kts 263°
2026-04-23 12:47 20.57830 -105.08039 14083 ft 291 kts 263°
2026-04-23 12:48 20.57535 -105.10171 13597 ft 289 kts 262°
2026-04-23 12:48 20.57243 -105.12290 13099 ft 287 kts 262°
2026-04-23 12:48 20.56952 -105.14392 12617 ft 285 kts 262°
2026-04-23 12:48 20.56663 -105.16473 12141 ft 283 kts 263°
2026-04-23 12:49 20.56377 -105.18542 11687 ft 280 kts 263°
2026-04-23 12:49 20.56096 -105.20561 11260 ft 277 kts 263°
2026-04-23 12:49 20.55815 -105.22578 10887 ft 272 kts 263°
2026-04-23 12:49 20.55482 -105.24559 10459 ft 271 kts 252°
2026-04-23 12:50 20.54539 -105.26257 10231 ft 264 kts 231°
2026-04-23 12:50 20.53362 -105.27691 10051 ft 254 kts 231°
2026-04-23 12:50 20.52205 -105.29071 9853 ft 244 kts 231°
2026-04-23 12:50 20.51101 -105.30381 9585 ft 229 kts 233°
2026-04-23 12:51 20.50428 -105.31871 8908 ft 223 kts 263°
2026-04-23 12:51 20.50536 -105.33468 8393 ft 210 kts 290°
2026-04-23 12:51 20.51245 -105.34794 7763 ft 205 kts 311°
2026-04-23 12:51 20.52203 -105.35899 7217 ft 199 kts 313°
2026-04-23 12:52 20.53104 -105.36951 6750 ft 189 kts 315°
2026-04-23 12:52 20.54038 -105.37908 6206 ft 184 kts 324°
2026-04-23 12:52 20.55207 -105.38367 5653 ft 178 kts 356°
2026-04-23 12:52 20.56405 -105.38124 5116 ft 176 kts 24°
2026-04-23 12:53 20.57397 -105.37352 4551 ft 177 kts 40°
2026-04-23 12:53 20.58312 -105.36485 3943 ft 180 kts 41°
2026-04-23 12:53 20.59217 -105.35540 3329 ft 182 kts 47°
2026-04-23 12:53 20.60052 -105.34555 2884 ft 174 kts 49°
2026-04-23 12:54 20.60855 -105.33612 2430 ft 170 kts 48°
2026-04-23 12:54 20.61646 -105.32709 2026 ft 163 kts 47°
2026-04-23 12:54 20.62413 -105.31833 1741 ft 159 kts 48°
2026-04-23 12:54 20.63157 -105.30962 1421 ft 160 kts 47°
2026-04-23 12:55 20.63932 -105.30072 1005 ft 166 kts 46°
2026-04-23 12:55 20.64724 -105.29169 637 ft 168 kts 47°
2026-04-23 12:55 20.65523 -105.28277 394 ft 166 kts 47°
2026-04-23 12:55 20.66303 -105.27396 257 ft 161 kts 50°
2026-04-23 12:56 20.67055 -105.26525 59 ft 159 kts 48°
2026-04-23 12:56 20.67723 -105.25744 32 ft 114 kts 47°
2026-04-23 12:56 20.68030 -105.25391 32 ft 17 kts 57°
2026-04-23 12:56 20.67978 -105.25284 32 ft 17 kts 136°
2026-04-23 12:57 20.67898 -105.25204 31 ft 16 kts 137°
2026-04-23 12:57 20.67832 -105.25141 31 ft 7 kts 138°
2026-04-23 12:57 20.67828 -105.25098 31 ft 6 kts 61°
2026-04-23 12:57 20.67858 -105.25058 31 ft 8 kts 47°
2026-04-23 12:58 20.67897 -105.25014 31 ft 9 kts 47°
2026-04-23 12:58 20.67948 -105.24979 31 ft 9 kts 24°
2026-04-23 12:58 20.67976 -105.24956 31 ft 0 kts 43°
2026-04-23 12:58 20.67980 -105.24953 31 ft 1 kts 43°
2026-04-23 12:59 20.67984 -105.24945 31 ft 1 kts 69°
2026-04-23 12:59 20.67984 -105.24938 31 ft 1 kts 90°
2026-04-23 12:59 20.67983 -105.24926 31 ft 2 kts 95°
2026-04-23 12:59 20.67983 -105.24903 31 ft 4 kts 80°
2026-04-23 13:00 20.67993 -105.24867 31 ft 7 kts 81°
2026-04-23 13:00 20.67968 -105.24805 31 ft 12 kts 140°
2026-04-23 13:00 20.67946 -105.24785 31 ft 0 kts 137°
2026-04-23 13:03 20.67942 -105.24782 18 ft 1 kts 147°
2026-04-23 13:03 20.67934 -105.24781 19 ft 1 kts 176°
2026-04-23 13:03 20.67922 -105.24784 39 ft 2 kts 202°
2026-04-23 13:03 20.67906 -105.24798 31 ft 4 kts 229°
2026-04-23 13:04 20.67897 -105.24810 31 ft 0 kts 230°
2026-04-23 13:04 20.67893 -105.24815 31 ft 0 kts 229°
2026-04-23 13:04 20.67892 -105.24817 31 ft 0 kts 229°
2026-04-23 13:04 20.67891 -105.24817 31 ft 0 kts 229°
2026-04-23 13:26 20.67896 -105.24811 31 ft 4 kts 230°
2026-04-23 13:27 20.67911 -105.24788 31 ft 4 kts 246°
2026-04-23 13:27 20.67916 -105.24761 31 ft 4 kts 284°
2026-04-23 13:27 20.67909 -105.24748 31 ft 1 kts 317°
2026-04-23 13:32 20.67910 -105.24748 31 ft 0 kts 317°
2026-04-23 13:32 20.67916 -105.24754 31 ft 3 kts 317°
2026-04-23 13:32 20.67940 -105.24778 31 ft 7 kts 317°
2026-04-23 13:32 20.67986 -105.24829 31 ft 12 kts 300°
2026-04-23 13:33 20.67984 -105.24926 31 ft 15 kts 292°
2026-04-23 13:33 20.68069 -105.25019 31 ft 20 kts 314°
2026-04-23 13:33 20.68066 -105.25092 31 ft 10 kts 231°
2026-04-23 13:33 20.68007 -105.25160 31 ft 15 kts 227°
2026-04-23 13:34 20.67924 -105.25255 31 ft 20 kts 227°
2026-04-23 13:34 20.67820 -105.25374 32 ft 25 kts 227°
2026-04-23 13:34 20.67692 -105.25521 31 ft 29 kts 227°
2026-04-23 13:34 20.67544 -105.25693 31 ft 34 kts 227°
2026-04-23 13:35 20.67376 -105.25887 31 ft 37 kts 227°
2026-04-23 13:35 20.67199 -105.26088 32 ft 38 kts 227°
2026-04-23 13:35 20.67020 -105.26291 32 ft 33 kts 226°
2026-04-23 13:35 20.67002 -105.26450 32 ft 21 kts 316°
2026-04-23 13:36 20.67077 -105.26488 34 ft 5 kts 37°
2026-04-23 13:36 20.67106 -105.26455 34 ft 11 kts 47°
2026-04-23 13:36 20.67336 -105.26191 32 ft 88 kts 47°
2026-04-23 13:36 20.67915 -105.25523 34 ft 155 kts 47°
2026-04-23 13:37 20.68744 -105.24552 270 ft 193 kts 46°
2026-04-23 13:37 20.69672 -105.23521 1051 ft 190 kts 49°
2026-04-23 13:37 20.70525 -105.22474 1726 ft 186 kts 51°
2026-04-23 13:37 20.71366 -105.21421 2320 ft 186 kts 50°
2026-04-23 13:38 20.72218 -105.20379 3003 ft 185 kts 49°
2026-04-23 13:38 20.73073 -105.19372 3806 ft 181 kts 48°
2026-04-23 13:38 20.73905 -105.18400 4600 ft 175 kts 47°
2026-04-23 13:38 20.74749 -105.17425 5126 ft 185 kts 45°
2026-04-23 13:39 20.75651 -105.16422 5685 ft 188 kts 44°
2026-04-23 13:39 20.76597 -105.15383 6106 ft 205 kts 44°
2026-04-23 13:39 20.77630 -105.14230 6439 ft 228 kts 44°
2026-04-23 13:39 20.78774 -105.12950 6849 ft 248 kts 44°
2026-04-23 13:40 20.79969 -105.11611 7614 ft 248 kts 44°
2026-04-23 13:40 20.81174 -105.10261 8329 ft 255 kts 44°
2026-04-23 13:40 20.82502 -105.08922 8808 ft 271 kts 39°
2026-04-23 13:40 20.83948 -105.07525 9245 ft 289 kts 40°
2026-04-23 13:41 20.85465 -105.06050 9906 ft 296 kts 40°
2026-04-23 13:41 20.87012 -105.04541 10514 ft 308 kts 40°
2026-04-23 13:41 20.88640 -105.02950 10823 ft 327 kts 40°
2026-04-23 13:41 20.90355 -105.01273 11082 ft 347 kts 40°
2026-04-23 13:42 20.92185 -104.99483 11281 ft 366 kts 41°
2026-04-23 13:42 20.94119 -104.97590 11421 ft 385 kts 41°
2026-04-23 13:42 20.96144 -104.95607 11561 ft 402 kts 41°
2026-04-23 13:42 20.98235 -104.93557 11909 ft 409 kts 41°
2026-04-23 13:43 21.00345 -104.91489 12459 ft 412 kts 41°
2026-04-23 13:43 21.02442 -104.89433 12939 ft 415 kts 41°
2026-04-23 13:43 21.04583 -104.87333 13410 ft 418 kts 41°
2026-04-23 13:43 21.06735 -104.85221 13836 ft 422 kts 41°
2026-04-23 13:44 21.08912 -104.83084 14223 ft 424 kts 41°
2026-04-23 13:44 21.11092 -104.80944 14645 ft 426 kts 41°
2026-04-23 13:44 21.13282 -104.78792 15052 ft 428 kts 41°
2026-04-23 13:44 21.15484 -104.76629 15430 ft 431 kts 41°
2026-04-23 13:45 21.16950 -104.75187 15674 ft 433 kts 41°
2026-04-23 13:45 21.19928 -104.72258 16179 ft 436 kts 40°
2026-04-23 13:45 21.22147 -104.70074 16539 ft 438 kts 40°
2026-04-23 13:45 21.24398 -104.67857 16891 ft 440 kts 40°
2026-04-23 13:46 21.26658 -104.65631 17223 ft 443 kts 40°
2026-04-23 13:46 21.28930 -104.63392 17563 ft 445 kts 40°
2026-04-23 13:46 21.31213 -104.61141 17871 ft 447 kts 40°
2026-04-23 13:46 21.33507 -104.58878 18175 ft 449 kts 40°
2026-04-23 13:47 21.35816 -104.56600 18455 ft 451 kts 40°
2026-04-23 13:47 21.38135 -104.54311 18719 ft 453 kts 40°
2026-04-23 13:47 21.40461 -104.52013 18971 ft 455 kts 40°
2026-04-23 13:47 21.42792 -104.49711 19225 ft 456 kts 40°
2026-04-23 13:48 21.45128 -104.47400 19429 ft 458 kts 40°
2026-04-23 13:48 21.47471 -104.45082 19660 ft 459 kts 40°
2026-04-23 13:48 21.49796 -104.42782 19898 ft 461 kts 40°
2026-04-23 13:48 21.52159 -104.40444 20116 ft 462 kts 40°
2026-04-23 13:49 21.54532 -104.38094 20348 ft 463 kts 40°
2026-04-23 13:49 21.56910 -104.35737 20543 ft 466 kts 40°
2026-04-23 13:49 21.59299 -104.33370 20755 ft 467 kts 40°
2026-04-23 13:49 21.61693 -104.30995 20972 ft 469 kts 40°
2026-04-23 13:50 21.64092 -104.28614 21174 ft 470 kts 40°
2026-04-23 13:50 21.66500 -104.26224 21385 ft 472 kts 40°
2026-04-23 13:50 21.68914 -104.23827 21589 ft 473 kts 40°
2026-04-23 13:50 21.71336 -104.21420 21758 ft 475 kts 40°
2026-04-23 13:51 21.73763 -104.19007 21975 ft 475 kts 40°
2026-04-23 13:51 21.76194 -104.16589 22148 ft 477 kts 40°
2026-04-23 13:51 21.78629 -104.14166 22310 ft 478 kts 40°
2026-04-23 13:51 21.81044 -104.11763 22486 ft 478 kts 40°
2026-04-23 13:52 21.83495 -104.09321 22618 ft 480 kts 40°
2026-04-23 13:52 21.85949 -104.06875 22787 ft 481 kts 40°
2026-04-23 13:52 21.88410 -104.04421 22900 ft 483 kts 40°
2026-04-23 13:52 21.90882 -104.01955 23065 ft 484 kts 40°
2026-04-23 13:53 21.93357 -103.99485 23222 ft 485 kts 40°
2026-04-23 13:53 21.95837 -103.97008 23359 ft 487 kts 40°
2026-04-23 13:53 21.98320 -103.94527 23415 ft 489 kts 40°
2026-04-23 13:53 22.00820 -103.92030 23571 ft 489 kts 40°
2026-04-23 13:54 22.03311 -103.89538 23717 ft 489 kts 40°
2026-04-23 13:54 22.05774 -103.87075 23844 ft 490 kts 40°
2026-04-23 13:54 22.08277 -103.84570 23947 ft 491 kts 40°
2026-04-23 13:54 22.10780 -103.82064 24098 ft 490 kts 40°
2026-04-23 13:55 22.13280 -103.79557 24233 ft 491 kts 40°
2026-04-23 13:55 22.15790 -103.77041 24342 ft 492 kts 40°
2026-04-23 13:55 22.18299 -103.74524 24442 ft 493 kts 40°
2026-04-23 13:55 22.20815 -103.72000 24577 ft 494 kts 40°
2026-04-23 13:56 22.23329 -103.69474 24715 ft 495 kts 39°
2026-04-23 13:56 22.25857 -103.66936 24834 ft 496 kts 39°
2026-04-23 13:56 22.28354 -103.64425 24987 ft 497 kts 39°
2026-04-23 13:56 22.30884 -103.61881 25114 ft 498 kts 39°
2026-04-23 13:57 22.33422 -103.59327 25235 ft 499 kts 39°
2026-04-23 13:57 22.35958 -103.56775 25362 ft 499 kts 39°
2026-04-23 13:57 22.38500 -103.54214 25534 ft 499 kts 39°
2026-04-23 13:57 22.41040 -103.51655 25733 ft 499 kts 39°
2026-04-23 13:58 22.43576 -103.49098 25947 ft 498 kts 39°
2026-04-23 13:58 22.46112 -103.46539 26155 ft 497 kts 39°
2026-04-23 13:58 22.48644 -103.43983 26374 ft 497 kts 39°
2026-04-23 13:58 22.50319 -103.42292 26526 ft 496 kts 39°
2026-04-23 13:59 22.52840 -103.39746 26765 ft 496 kts 39°
2026-04-23 13:59 22.56178 -103.36372 27105 ft 495 kts 39°
2026-04-23 13:59 22.58698 -103.33821 27354 ft 495 kts 39°
2026-04-23 13:59 22.61212 -103.31278 27626 ft 494 kts 39°
2026-04-23 14:00 22.62878 -103.29592 27816 ft 494 kts 39°
2026-04-23 14:00 22.65393 -103.27045 28107 ft 493 kts 39°
2026-04-23 14:00 22.67894 -103.24509 28407 ft 492 kts 39°
2026-04-23 14:00 22.70394 -103.21975 28713 ft 492 kts 38°
2026-04-23 14:01 22.72894 -103.19439 29026 ft 491 kts 39°
2026-04-23 14:01 22.75389 -103.16907 29319 ft 490 kts 38°
2026-04-23 14:01 22.77844 -103.14414 29631 ft 489 kts 38°
2026-04-23 14:01 22.80325 -103.11892 29990 ft 487 kts 38°
2026-04-23 14:02 22.82800 -103.09376 30353 ft 485 kts 38°
2026-04-23 14:02 22.85257 -103.06878 30657 ft 483 kts 38°
2026-04-23 14:02 22.87710 -103.04382 30949 ft 482 kts 38°
2026-04-23 14:02 22.90153 -103.01895 31247 ft 482 kts 38°
2026-04-23 14:03 22.92594 -102.99407 31545 ft 481 kts 38°
2026-04-23 14:03 22.95001 -102.96954 31848 ft 480 kts 38°
2026-04-23 14:03 22.97440 -102.94467 32138 ft 480 kts 38°
2026-04-23 14:03 22.99876 -102.91982 32434 ft 479 kts 38°
2026-04-23 14:04 23.02308 -102.89499 32703 ft 479 kts 38°
2026-04-23 14:04 23.04732 -102.87024 32987 ft 478 kts 38°
2026-04-23 14:04 23.07155 -102.84547 33261 ft 478 kts 38°
2026-04-23 14:04 23.09582 -102.82066 33525 ft 478 kts 38°
2026-04-23 14:05 23.11995 -102.79597 33796 ft 477 kts 38°
2026-04-23 14:05 23.14412 -102.77124 34056 ft 476 kts 38°
2026-04-23 14:05 23.16793 -102.74686 34291 ft 475 kts 38°
2026-04-23 14:05 23.19204 -102.72216 34551 ft 473 kts 37°
2026-04-23 14:06 23.21590 -102.69770 34790 ft 471 kts 37°
2026-04-23 14:06 23.23972 -102.67327 35017 ft 470 kts 37°
2026-04-23 14:06 23.26353 -102.64884 35058 ft 471 kts 37°
2026-04-23 14:07 23.31107 -102.60002 35034 ft 468 kts 37°
2026-04-23 14:07 23.38227 -102.52680 35029 ft 469 kts 37°
2026-04-23 14:08 23.42938 -102.47831 35004 ft 469 kts 37°
2026-04-23 14:08 23.47676 -102.42948 35001 ft 469 kts 37°
2026-04-23 14:09 23.52418 -102.38056 35008 ft 469 kts 37°
2026-04-23 14:09 23.57125 -102.33194 35004 ft 469 kts 37°
2026-04-23 14:10 23.61847 -102.28313 35007 ft 470 kts 37°
2026-04-23 14:10 23.66592 -102.23400 34915 ft 471 kts 37°
2026-04-23 14:11 23.68937 -102.20940 35182 ft 446 kts 38°
2026-04-23 14:11 23.70804 -102.18868 38674 ft 320 kts 33°
2026-04-23 14:11 23.72153 -102.17348 41095 ft 252 kts 34°
2026-04-23 14:11 23.73335 -102.15949 40609 ft 263 kts 45°
2026-04-23 14:12 23.74518 -102.14186 38197 ft 323 kts 48°
2026-04-23 14:12 23.75899 -102.12126 36769 ft 332 kts 41°
2026-04-23 14:12 23.77215 -102.10271 37340 ft 282 kts 42°
2026-04-23 14:12 23.78289 -102.08633 37640 ft 256 kts 41°
2026-04-23 14:13 23.79342 -102.06985 36535 ft 279 kts 42°
2026-04-23 14:13 23.80587 -102.05197 35263 ft 307 kts 40°
2026-04-23 14:13 23.81928 -102.03347 33483 ft 328 kts 43°
2026-04-23 14:13 23.83616 -102.01124 30604 ft 432 kts 45°
2026-04-23 14:14 23.85370 -101.98755 32226 ft 373 kts 43°
2026-04-23 14:14 23.87152 -101.96820 32930 ft 355 kts 27°
2026-04-23 14:14 23.89320 -101.95599 32664 ft 351 kts 10°
2026-04-23 14:14 23.91665 -101.94747 32547 ft 360 kts 13°
2026-04-23 14:15 23.93984 -101.93607 32545 ft 373 kts 25°
2026-04-23 14:15 23.96143 -101.91940 32566 ft 383 kts 30°
2026-04-23 14:15 24.00332 -101.88133 32591 ft 398 kts 35°
2026-04-23 14:16 24.04457 -101.83986 32672 ft 410 kts 36°
2026-04-23 14:16 24.08657 -101.79637 32747 ft 421 kts 37°
2026-04-23 14:17 24.12955 -101.75144 32827 ft 432 kts 37°
2026-04-23 14:17 24.15130 -101.72869 32952 ft 433 kts 37°
2026-04-23 14:17 24.17319 -101.70577 33018 ft 437 kts 37°
2026-04-23 14:18 24.21742 -101.65943 33018 ft 447 kts 37°
2026-04-23 14:18 24.26296 -101.61165 32993 ft 457 kts 37°
2026-04-23 14:19 24.30938 -101.56291 33023 ft 466 kts 37°
2026-04-23 14:19 24.35633 -101.51355 33022 ft 473 kts 37°
2026-04-23 14:20 24.40385 -101.46354 33025 ft 472 kts 37°
2026-04-23 14:20 24.45124 -101.41362 33017 ft 472 kts 38°
2026-04-23 14:21 24.49864 -101.36362 33018 ft 472 kts 38°
2026-04-23 14:21 24.54579 -101.31385 33028 ft 473 kts 38°
2026-04-23 14:22 24.59314 -101.26380 33052 ft 471 kts 37°
2026-04-23 14:22 24.64034 -101.21385 33035 ft 470 kts 37°
2026-04-23 14:23 24.68750 -101.16390 33044 ft 470 kts 37°
2026-04-23 14:23 24.73464 -101.11391 33035 ft 470 kts 37°
2026-04-23 14:24 24.78148 -101.06418 33051 ft 471 kts 37°
2026-04-23 14:24 24.82857 -101.01413 33053 ft 470 kts 37°
2026-04-23 14:25 24.87528 -100.96444 33063 ft 468 kts 37°
2026-04-23 14:25 24.92209 -100.91457 33057 ft 468 kts 37°
2026-04-23 14:26 24.94546 -100.88967 32050 ft 472 kts 37°
2026-04-23 14:26 24.96942 -100.86412 31083 ft 479 kts 38°
2026-04-23 14:26 24.99323 -100.83868 30556 ft 474 kts 38°
2026-04-23 14:26 25.01665 -100.81366 29794 ft 474 kts 39°
2026-04-23 14:27 25.04043 -100.78826 28913 ft 475 kts 39°
2026-04-23 14:27 25.06419 -100.76286 28000 ft 477 kts 39°
2026-04-23 14:27 25.08817 -100.73720 27018 ft 481 kts 39°
2026-04-23 14:27 25.11236 -100.71132 25960 ft 487 kts 40°
2026-04-23 14:28 25.13674 -100.68520 25084 ft 489 kts 40°
2026-04-23 14:28 25.16071 -100.65951 24481 ft 485 kts 40°
2026-04-23 14:28 25.18482 -100.63366 23860 ft 481 kts 40°
2026-04-23 14:28 25.20882 -100.60791 23163 ft 478 kts 40°
2026-04-23 14:29 25.23262 -100.58237 22503 ft 474 kts 40°
2026-04-23 14:29 25.25621 -100.55703 21879 ft 470 kts 41°
2026-04-23 14:29 25.27951 -100.53199 21264 ft 465 kts 41°
2026-04-23 14:29 25.30256 -100.50720 20708 ft 460 kts 41°
2026-04-23 14:30 25.32545 -100.48257 20099 ft 457 kts 41°
2026-04-23 14:30 25.34817 -100.45812 19509 ft 453 kts 41°
2026-04-23 14:30 25.37039 -100.43418 18977 ft 450 kts 41°
2026-04-23 14:30 25.39276 -100.41008 18371 ft 447 kts 41°
2026-04-23 14:31 25.41502 -100.38608 17756 ft 443 kts 41°
2026-04-23 14:31 25.43696 -100.36242 17200 ft 438 kts 41°
2026-04-23 14:31 25.45870 -100.33895 16655 ft 434 kts 41°
2026-04-23 14:31 25.48025 -100.31572 16160 ft 429 kts 42°
2026-04-23 14:32 25.50146 -100.29278 15732 ft 423 kts 43°
2026-04-23 14:32 25.52212 -100.27042 15237 ft 417 kts 42°
2026-04-23 14:32 25.54277 -100.24808 14842 ft 410 kts 41°
2026-04-23 14:32 25.56527 -100.22956 14490 ft 399 kts 28°
2026-04-23 14:33 25.58879 -100.21382 14231 ft 391 kts 30°
2026-04-23 14:33 25.61170 -100.19798 13940 ft 384 kts 30°
2026-04-23 14:33 25.63409 -100.18232 13708 ft 376 kts 30°
2026-04-23 14:33 25.65586 -100.16699 13501 ft 367 kts 30°
2026-04-23 14:34 25.67713 -100.15198 13313 ft 357 kts 30°
2026-04-23 14:34 25.69754 -100.13756 13156 ft 348 kts 30°
2026-04-23 14:34 25.71769 -100.12331 12995 ft 338 kts 30°
2026-04-23 14:34 25.73734 -100.10956 12846 ft 329 kts 30°
2026-04-23 14:35 25.75646 -100.09621 12704 ft 320 kts 30°
2026-04-23 14:35 25.77499 -100.08327 12584 ft 309 kts 30°
2026-04-23 14:35 25.79272 -100.07088 12444 ft 294 kts 29°
2026-04-23 14:35 25.81004 -100.05876 11887 ft 294 kts 30°
2026-04-23 14:36 25.82727 -100.04670 11395 ft 291 kts 30°
2026-04-23 14:36 25.84428 -100.03481 10941 ft 287 kts 30°
2026-04-23 14:36 25.86111 -100.02302 10458 ft 285 kts 30°
2026-04-23 14:36 25.87762 -100.01146 9993 ft 283 kts 30°
2026-04-23 14:37 25.89504 -100.00200 9507 ft 277 kts 12°
2026-04-23 14:37 25.91372 -100.00107 9245 ft 263 kts 350°
2026-04-23 14:37 25.93046 -100.00774 9015 ft 251 kts 329°
2026-04-23 14:37 25.94329 -100.02010 8820 ft 240 kts 309°
2026-04-23 14:38 25.95311 -100.03448 8634 ft 227 kts 307°
2026-04-23 14:38 25.96220 -100.04863 8164 ft 225 kts 305°
2026-04-23 14:38 25.97104 -100.06302 7688 ft 225 kts 304°
2026-04-23 14:38 25.97962 -100.07737 7160 ft 222 kts 303°
2026-04-23 14:39 25.98801 -100.09166 6512 ft 219 kts 302°
2026-04-23 14:39 25.99631 -100.10594 5778 ft 218 kts 301°
2026-04-23 14:39 26.00108 -100.12119 5228 ft 207 kts 271°
2026-04-23 14:39 25.99819 -100.13607 4930 ft 195 kts 241°
2026-04-23 14:40 25.98963 -100.14749 4651 ft 193 kts 218°
2026-04-23 14:40 25.97880 -100.15631 4362 ft 193 kts 213°
2026-04-23 14:40 25.96817 -100.16496 4079 ft 185 kts 215°
2026-04-23 14:40 25.95769 -100.17291 3800 ft 180 kts 211°
2026-04-23 14:41 25.94722 -100.18026 3524 ft 174 kts 211°
2026-04-23 14:41 25.93714 -100.18728 3251 ft 167 kts 211°
2026-04-23 14:41 25.92735 -100.19412 3003 ft 166 kts 211°
2026-04-23 14:41 25.91760 -100.20092 2764 ft 165 kts 211°
2026-04-23 14:42 25.90785 -100.20773 2561 ft 166 kts 211°
2026-04-23 14:42 25.89816 -100.21450 2340 ft 167 kts 211°
2026-04-23 14:42 25.88828 -100.22139 2107 ft 171 kts 213°
2026-04-23 14:42 25.87852 -100.22815 1831 ft 161 kts 210°
2026-04-23 14:43 25.86890 -100.23489 1526 ft 165 kts 211°
2026-04-23 14:43 25.86003 -100.24104 1487 ft 115 kts 213°
2026-04-23 14:43 25.85718 -100.24306 1481 ft 31 kts 212°
2026-04-23 14:43 25.85666 -100.24384 1475 ft 7 kts 313°
2026-04-23 14:44 25.85677 -100.24391 1475 ft 1 kts 338°
2026-04-23 14:44 25.85686 -100.24394 1479 ft 2 kts 343°
2026-04-23 14:44 25.85702 -100.24397 1478 ft 3 kts 353°
2026-04-23 14:44 25.85735 -100.24397 1480 ft 6 kts
2026-04-23 14:45 25.85768 -100.24396 1481 ft 8 kts
2026-04-23 14:45 25.85867 -100.24393 1476 ft 13 kts
2026-04-23 14:45 25.85968 -100.24377 1482 ft 16 kts 27°
2026-04-23 14:45 25.86063 -100.24308 1487 ft 14 kts 54°
2026-04-23 14:46 25.86091 -100.24190 1487 ft 18 kts 78°
2026-04-23 14:46 25.86107 -100.24041 1487 ft 20 kts 106°
2026-04-23 14:46 25.86046 -100.23913 1477 ft 17 kts 107°
2026-04-23 14:46 25.86047 -100.23872 1487 ft 0 kts 51°
2026-04-23 18:04 25.86048 -100.23871 1478 ft 1 kts 51°
2026-04-23 18:04 25.86056 -100.23866 1477 ft 1 kts 20°
2026-04-23 18:04 25.86059 -100.23867 1479 ft 0 kts 351°
2026-04-23 18:04 25.86061 -100.23870 1480 ft 1 kts 313°
2026-04-23 18:05 25.86062 -100.23876 1480 ft 2 kts 275°
2026-04-23 18:05 25.86052 -100.23907 1487 ft 7 kts 253°
2026-04-23 18:05 25.86073 -100.23980 1488 ft 13 kts 300°
2026-04-23 18:05 25.86025 -100.24094 1479 ft 15 kts 213°
2026-04-23 18:06 25.85964 -100.24138 1480 ft 16 kts 212°
2026-04-23 18:06 25.85870 -100.24202 1483 ft 16 kts 211°
2026-04-23 18:06 25.85768 -100.24271 1479 ft 18 kts 212°
2026-04-23 18:06 25.85667 -100.24353 1480 ft 16 kts 231°
2026-04-23 18:07 25.85639 -100.24371 1481 ft 0 kts 156°
2026-04-23 18:07 25.85638 -100.24367 1481 ft 1 kts 98°
2026-04-23 18:07 25.85657 -100.24348 1483 ft 7 kts 31°
2026-04-23 18:07 25.85814 -100.24242 1478 ft 61 kts 32°
2026-04-23 18:08 25.86392 -100.23837 1486 ft 133 kts 32°
2026-04-23 18:08 25.87338 -100.23179 1577 ft 183 kts 33°
2026-04-23 18:08 25.88474 -100.22425 2313 ft 194 kts 30°
2026-04-23 18:08 25.89661 -100.21697 3314 ft 195 kts 27°
2026-04-23 18:09 25.90942 -100.21435 4240 ft 185 kts 345°
2026-04-23 18:09 25.92011 -100.22187 5019 ft 186 kts 309°
2026-04-23 18:09 25.92601 -100.23464 5700 ft 189 kts 279°
2026-04-23 18:09 25.92511 -100.24903 6423 ft 190 kts 248°
2026-04-23 18:10 25.91829 -100.26157 7118 ft 192 kts 236°
2026-04-23 18:10 25.91080 -100.27409 7766 ft 196 kts 238°
2026-04-23 18:10 25.90347 -100.28680 8432 ft 198 kts 239°
2026-04-23 18:10 25.89603 -100.29991 9098 ft 201 kts 239°
2026-04-23 18:11 25.88855 -100.31321 9757 ft 204 kts 240°
2026-04-23 18:11 25.88103 -100.32671 10341 ft 207 kts 240°
2026-04-23 18:11 25.87326 -100.34076 10735 ft 221 kts 241°
2026-04-23 18:11 25.86507 -100.35593 10987 ft 242 kts 241°
2026-04-23 18:12 25.85609 -100.37271 11321 ft 262 kts 241°
2026-04-23 18:12 25.84648 -100.39068 11777 ft 276 kts 241°
2026-04-23 18:12 25.83633 -100.40952 12183 ft 294 kts 241°
2026-04-23 18:12 25.82551 -100.42963 12510 ft 314 kts 241°
2026-04-23 18:13 25.81401 -100.45108 12783 ft 333 kts 241°
2026-04-23 18:13 25.80179 -100.47387 13005 ft 353 kts 240°
2026-04-23 18:13 25.78885 -100.49787 13174 ft 372 kts 240°
2026-04-23 18:13 25.77514 -100.52317 13275 ft 391 kts 240°
2026-04-23 18:14 25.76077 -100.54956 13396 ft 406 kts 240°
2026-04-23 18:14 25.74611 -100.57627 13821 ft 412 kts 239°
2026-04-23 18:14 25.73106 -100.60328 14316 ft 414 kts 239°
2026-04-23 18:14 25.71574 -100.63057 14784 ft 417 kts 239°
2026-04-23 18:15 25.70031 -100.65793 15280 ft 419 kts 239°
2026-04-23 18:15 25.68486 -100.68529 15721 ft 421 kts 239°
2026-04-23 18:15 25.66923 -100.71293 16183 ft 423 kts 239°
2026-04-23 18:15 25.65353 -100.74066 16597 ft 425 kts 239°
2026-04-23 18:16 25.63776 -100.76850 17035 ft 426 kts 239°
2026-04-23 18:16 25.62193 -100.79641 17463 ft 429 kts 239°
2026-04-23 18:16 25.60603 -100.82443 17860 ft 431 kts 240°
2026-04-23 18:17 25.57398 -100.88085 18588 ft 434 kts 240°
2026-04-23 18:17 25.55797 -100.90898 18892 ft 436 kts 240°
2026-04-23 18:17 25.54313 -100.93818 19177 ft 435 kts 249°
2026-04-23 18:17 25.53145 -100.96907 19470 ft 436 kts 249°
2026-04-23 18:18 25.51967 -101.00013 19746 ft 437 kts 249°
2026-04-23 18:18 25.50792 -101.03126 20028 ft 438 kts 250°
2026-04-23 18:18 25.49613 -101.06250 20275 ft 440 kts 250°
2026-04-23 18:18 25.48428 -101.09387 20464 ft 443 kts 250°
2026-04-23 18:19 25.47240 -101.12532 20794 ft 442 kts 250°
2026-04-23 18:19 25.46064 -101.15645 21024 ft 444 kts 250°
2026-04-23 18:19 25.44870 -101.18800 21269 ft 445 kts 250°
2026-04-23 18:19 25.43669 -101.21971 21506 ft 447 kts 250°
2026-04-23 18:20 25.42467 -101.25143 21722 ft 448 kts 250°
2026-04-23 18:20 25.41255 -101.28339 21969 ft 449 kts 250°
2026-04-23 18:20 25.40043 -101.31533 22192 ft 451 kts 250°
2026-04-23 18:20 25.38826 -101.34738 22419 ft 452 kts 250°
2026-04-23 18:21 25.37606 -101.37948 22649 ft 453 kts 250°
2026-04-23 18:21 25.36379 -101.41172 22864 ft 455 kts 250°
2026-04-23 18:21 25.35167 -101.44356 23088 ft 456 kts 250°
2026-04-23 18:21 25.33934 -101.47594 23303 ft 457 kts 250°
2026-04-23 18:22 25.32697 -101.50837 23501 ft 458 kts 250°
2026-04-23 18:22 25.31454 -101.54095 23687 ft 460 kts 250°
2026-04-23 18:22 25.30209 -101.57354 23873 ft 461 kts 250°
2026-04-23 18:22 25.28963 -101.60618 24024 ft 462 kts 250°
2026-04-23 18:23 25.28133 -101.62787 24133 ft 463 kts 250°
2026-04-23 18:23 25.25189 -101.70477 24545 ft 465 kts 250°
2026-04-23 18:24 25.22678 -101.77025 24873 ft 467 kts 250°
2026-04-23 18:24 25.21407 -101.80331 25026 ft 468 kts 250°
2026-04-23 18:24 25.20133 -101.83647 25179 ft 469 kts 250°
2026-04-23 18:25 25.17571 -101.90303 25547 ft 470 kts 250°
2026-04-23 18:25 25.16290 -101.93628 25763 ft 470 kts 250°
2026-04-23 18:25 25.15010 -101.96945 26008 ft 470 kts 250°
2026-04-23 18:25 25.13727 -102.00270 26221 ft 470 kts 250°
2026-04-23 18:26 25.12463 -102.03544 26475 ft 470 kts 250°
2026-04-23 18:26 25.11178 -102.06866 26733 ft 469 kts 250°
2026-04-23 18:26 25.09899 -102.10173 27013 ft 469 kts 251°
2026-04-23 18:26 25.08619 -102.13480 27314 ft 468 kts 251°
2026-04-23 18:27 25.07337 -102.16788 27628 ft 467 kts 251°
2026-04-23 18:27 25.06062 -102.20077 27949 ft 466 kts 251°
2026-04-23 18:27 25.04786 -102.23366 28270 ft 466 kts 251°
2026-04-23 18:27 25.03509 -102.26654 28602 ft 465 kts 251°
2026-04-23 18:28 25.02251 -102.29891 28930 ft 464 kts 251°
2026-04-23 18:28 25.00977 -102.33167 29275 ft 463 kts 251°
2026-04-23 18:28 24.99705 -102.36434 29618 ft 463 kts 251°
2026-04-23 18:28 24.98435 -102.39694 29974 ft 462 kts 251°
2026-04-23 18:29 24.97165 -102.42951 30285 ft 461 kts 251°
2026-04-23 18:29 24.95917 -102.46150 30596 ft 460 kts 251°
2026-04-23 18:29 24.94656 -102.49384 30918 ft 458 kts 251°
2026-04-23 18:29 24.93396 -102.52608 31254 ft 456 kts 251°
2026-04-23 18:30 24.92140 -102.55823 31595 ft 454 kts 251°
2026-04-23 18:30 24.90893 -102.59015 31940 ft 453 kts 252°
2026-04-23 18:30 24.89649 -102.62192 32288 ft 451 kts 252°
2026-04-23 18:30 24.88407 -102.65367 32607 ft 449 kts 252°
2026-04-23 18:31 24.87186 -102.68482 32946 ft 447 kts 252°
2026-04-23 18:31 24.85959 -102.71613 33288 ft 445 kts 252°
2026-04-23 18:31 24.84731 -102.74743 33632 ft 443 kts 252°
2026-04-23 18:31 24.83509 -102.77856 33971 ft 441 kts 252°
2026-04-23 18:32 24.82291 -102.80957 34262 ft 440 kts 252°
2026-04-23 18:32 24.81076 -102.84043 34535 ft 439 kts 252°
2026-04-23 18:32 24.79876 -102.87087 34793 ft 438 kts 252°
2026-04-23 18:32 24.78666 -102.90155 35071 ft 436 kts 252°
2026-04-23 18:33 24.77456 -102.93220 35336 ft 435 kts 252°
2026-04-23 18:33 24.76245 -102.96283 35565 ft 434 kts 252°
2026-04-23 18:33 24.75052 -102.99302 35736 ft 435 kts 252°
2026-04-23 18:33 24.73843 -103.02359 35901 ft 436 kts 252°
2026-04-23 18:34 24.72627 -103.05432 36011 ft 437 kts 252°
2026-04-23 18:34 24.70207 -103.11536 36000 ft 434 kts 252°
2026-04-23 18:35 24.67791 -103.17628 36005 ft 435 kts 252°
2026-04-23 18:35 24.65374 -103.23719 36023 ft 434 kts 252°
2026-04-23 18:36 24.62956 -103.29804 36022 ft 435 kts 252°
2026-04-23 18:36 24.60548 -103.35856 36027 ft 434 kts 252°
2026-04-23 18:37 24.58122 -103.41943 36030 ft 435 kts 252°
2026-04-23 18:37 24.55696 -103.48022 36020 ft 435 kts 252°
2026-04-23 18:38 24.53264 -103.54108 36029 ft 435 kts 252°
2026-04-23 18:38 24.50832 -103.60186 36037 ft 435 kts 252°
2026-04-23 18:39 24.48414 -103.66222 36048 ft 435 kts 252°
2026-04-23 18:39 24.45974 -103.72308 36055 ft 435 kts 252°
2026-04-23 18:40 24.43538 -103.78378 36054 ft 434 kts 252°
2026-04-23 18:40 24.41093 -103.84446 36061 ft 435 kts 252°
2026-04-23 18:41 24.38650 -103.90501 36063 ft 436 kts 251°
2026-04-23 18:41 24.36191 -103.96590 36067 ft 436 kts 251°
2026-04-23 18:42 24.33724 -104.02688 36072 ft 439 kts 251°
2026-04-23 18:42 24.31242 -104.08816 36067 ft 439 kts 251°
2026-04-23 18:43 24.28774 -104.14901 36072 ft 439 kts 251°
2026-04-23 18:43 24.26289 -104.21020 36097 ft 439 kts 251°
2026-04-23 18:44 24.23801 -104.27139 36144 ft 440 kts 251°
2026-04-23 18:44 24.21301 -104.33275 36191 ft 440 kts 251°
2026-04-23 18:45 24.18800 -104.39408 36238 ft 440 kts 251°
2026-04-23 18:45 24.16300 -104.45532 36277 ft 440 kts 251°
2026-04-23 18:46 24.13777 -104.51588 36268 ft 443 kts 246°
2026-04-23 18:46 24.10635 -104.57409 36146 ft 440 kts 244°
2026-04-23 18:46 24.09066 -104.60280 35529 ft 439 kts 244°
2026-04-23 18:47 24.07488 -104.63160 34683 ft 443 kts 243°
2026-04-23 18:47 24.05896 -104.66059 33854 ft 446 kts 243°
2026-04-23 18:47 24.04684 -104.68267 33233 ft 447 kts 243°
2026-04-23 20:06 24.04409 -104.68769 34026 ft 447 kts 241°
2026-04-23 20:06 24.02818 -104.71666 32210 ft 450 kts 243°
2026-04-23 20:07 24.01207 -104.74601 31318 ft 453 kts 243°
2026-04-23 20:07 23.99574 -104.77565 30532 ft 455 kts 243°
2026-04-23 20:07 23.97941 -104.80528 29781 ft 455 kts 243°
2026-04-23 20:07 23.96307 -104.83495 28863 ft 457 kts 243°
2026-04-23 20:08 23.94662 -104.86480 27861 ft 460 kts 242°
2026-04-23 20:08 23.93022 -104.89452 26924 ft 463 kts 242°
2026-04-23 20:08 23.91361 -104.92462 26239 ft 460 kts 242°
2026-04-23 20:08 23.89711 -104.95451 25571 ft 457 kts 242°
2026-04-23 20:09 23.88075 -104.98412 24888 ft 454 kts 242°
2026-04-23 20:09 23.86440 -105.01371 24201 ft 452 kts 242°
2026-04-23 20:09 23.84817 -105.04305 23503 ft 450 kts 242°
2026-04-23 20:09 23.83199 -105.07228 22726 ft 448 kts 241°
2026-04-23 20:10 23.82133 -105.09153 22280 ft 446 kts 241°
2026-04-23 20:10 23.80014 -105.12978 21398 ft 441 kts 241°
2026-04-23 20:10 23.78427 -105.15840 20733 ft 438 kts 241°
2026-04-23 20:10 23.76853 -105.18678 20069 ft 436 kts 241°
2026-04-23 20:11 23.75284 -105.21506 19419 ft 434 kts 241°
2026-04-23 20:11 23.73721 -105.24320 18772 ft 433 kts 241°
2026-04-23 20:11 23.72164 -105.27122 18072 ft 431 kts 241°
2026-04-23 20:11 23.70615 -105.29909 17416 ft 427 kts 240°
2026-04-23 20:12 23.69095 -105.32641 16813 ft 424 kts 240°
2026-04-23 20:12 23.67570 -105.35380 16212 ft 420 kts 240°
2026-04-23 20:12 23.66062 -105.38087 15754 ft 413 kts 240°
2026-04-23 20:12 23.64568 -105.40774 14917 ft 416 kts 240°
2026-04-23 20:13 23.63074 -105.43454 14446 ft 410 kts 240°
2026-04-23 20:13 23.61603 -105.46092 14068 ft 403 kts 240°
2026-04-23 20:13 23.60161 -105.48677 13668 ft 396 kts 240°
2026-04-23 20:13 23.58724 -105.51256 12893 ft 397 kts 240°
2026-04-23 20:14 23.57313 -105.53781 12434 ft 391 kts 240°
2026-04-23 20:14 23.55904 -105.56302 11931 ft 387 kts 240°
2026-04-23 20:14 23.54511 -105.58796 11555 ft 380 kts 240°
2026-04-23 20:14 23.53158 -105.61215 11419 ft 367 kts 240°
2026-04-23 20:15 23.51848 -105.63543 11310 ft 354 kts 240°
2026-04-23 20:15 23.50601 -105.65776 11122 ft 344 kts 241°
2026-04-23 20:15 23.49366 -105.67979 10900 ft 336 kts 241°
2026-04-23 20:15 23.48172 -105.70120 10822 ft 327 kts 240°
2026-04-23 20:16 23.46996 -105.72218 10593 ft 320 kts 241°
2026-04-23 20:16 23.45849 -105.74263 10430 ft 312 kts 241°
2026-04-23 20:16 23.44731 -105.76251 10261 ft 303 kts 241°
2026-04-23 20:16 23.43647 -105.78184 10102 ft 295 kts 241°
2026-04-23 20:17 23.42597 -105.80055 9819 ft 291 kts 240°
2026-04-23 20:17 23.41541 -105.81934 9466 ft 291 kts 241°
2026-04-23 20:17 23.40484 -105.83816 9161 ft 291 kts 240°
2026-04-23 20:17 23.39427 -105.85699 8812 ft 291 kts 240°
2026-04-23 20:18 23.38372 -105.87574 8486 ft 290 kts 240°
2026-04-23 20:18 23.37321 -105.89444 8171 ft 287 kts 241°
2026-04-23 20:18 23.36278 -105.91295 7866 ft 286 kts 240°
2026-04-23 20:18 23.35250 -105.93119 7528 ft 285 kts 240°
2026-04-23 20:19 23.34221 -105.94953 7220 ft 282 kts 239°
2026-04-23 20:19 23.33197 -105.96766 6932 ft 280 kts 239°
2026-04-23 20:19 23.32171 -105.98587 6507 ft 283 kts 239°
2026-04-23 20:19 23.31135 -106.00422 6074 ft 287 kts 240°
2026-04-23 20:20 23.30085 -106.02284 5621 ft 291 kts 239°
2026-04-23 20:20 23.29029 -106.04160 5398 ft 285 kts 239°
2026-04-23 20:20 23.27876 -106.05867 5249 ft 277 kts 227°
2026-04-23 20:20 23.26418 -106.07133 5161 ft 259 kts 211°
2026-04-23 20:21 23.24800 -106.07863 4773 ft 247 kts 194°
2026-04-23 20:21 23.23138 -106.08124 4330 ft 236 kts 182°
2026-04-23 20:21 23.21542 -106.08072 3894 ft 228 kts 174°
2026-04-23 20:21 23.20019 -106.07787 3545 ft 215 kts 166°
2026-04-23 20:22 23.18629 -106.07438 3350 ft 194 kts 172°
2026-04-23 20:22 23.17299 -106.07490 3198 ft 193 kts 196°
2026-04-23 20:22 23.16208 -106.08259 2989 ft 181 kts 231°
2026-04-23 20:22 23.15699 -106.09454 2828 ft 172 kts 253°
2026-04-23 20:23 23.15477 -106.10717 2663 ft 167 kts 264°
2026-04-23 20:23 23.15455 -106.11970 2524 ft 165 kts 271°
2026-04-23 20:23 23.15496 -106.13195 2319 ft 160 kts 271°
2026-04-23 20:23 23.15556 -106.14405 2057 ft 161 kts 273°
2026-04-23 20:24 23.15629 -106.15607 1804 ft 163 kts 273°
2026-04-23 20:24 23.15693 -106.16829 1573 ft 161 kts 271°
2026-04-23 20:24 23.15751 -106.18041 1347 ft 160 kts 272°
2026-04-23 20:24 23.15813 -106.19244 1121 ft 159 kts 271°
2026-04-23 20:25 23.15849 -106.20440 851 ft 158 kts 270°
2026-04-23 20:25 23.15888 -106.21622 646 ft 154 kts 272°
2026-04-23 20:25 23.15953 -106.22759 466 ft 148 kts 273°
2026-04-23 20:25 23.16018 -106.23879 293 ft 151 kts 272°
2026-04-23 20:26 23.16069 -106.25018 116 ft 151 kts 272°
2026-04-23 20:26 23.16132 -106.26106 40 ft 130 kts 273°
2026-04-23 20:26 23.16162 -106.26793 38 ft 41 kts 272°
2026-04-23 20:26 23.16247 -106.27109 39 ft 40 kts 301°
2026-04-23 20:27 23.16450 -106.27206 38 ft 26 kts 358°
2026-04-23 20:27 23.16511 -106.27221 38 ft 0 kts 353°
2026-04-23 20:27 23.16515 -106.27222 38 ft 2 kts 354°
2026-04-23 20:28 23.16536 -106.27217 37 ft 5 kts 24°
2026-04-23 20:28 23.16558 -106.27194 38 ft 4 kts 52°
2026-04-23 20:28 23.16563 -106.27187 35 ft 2 kts 53°
2026-04-23 20:28 23.16570 -106.27177 37 ft 2 kts 54°
2026-04-23 20:29 23.16576 -106.27168 38 ft 1 kts 54°